Location: Rehoboth Beach
(38.7438°N, 75.1341°W)
Time: 00:25:50
(UTC-04:00)

Cosmos 1452 Rocket - Visible Passes

Search period start: 23 October 2017 00:00
Search period end: 02 November 2017 00:00
Orbit: 768 x 774 km, 74.1° (Epoch: 22 October)

Date Brightness Start Highest point End Pass type
(mag) Time Alt. Az. Time Alt. Az. Time Alt. Az.
23 Oct 4.5 19:01:37 10° NNW 19:06:43 52° WSW 19:11:48 10° S visible
25 Oct 6.6 19:33:00 10° WNW 19:36:14 17° W 19:39:29 10° SW visible
26 Oct 6.6 06:45:31 10° SE 06:49:14 20° E 06:52:58 10° NE visible
26 Oct 5.8 18:55:59 10° NW 19:00:26 29° W 19:04:53 10° SSW visible
27 Oct 7.2 06:12:05 10° ESE 06:13:29 11° E 06:14:53 10° ENE visible
29 Oct 5.4 06:38:09 10° SSE 06:42:53 36° E 06:47:38 10° NE visible
29 Oct 6.8 18:50:59 10° WNW 18:54:02 16° W 18:57:06 10° SW visible
30 Oct 6.3 06:03:11 10° SE 06:07:02 21° E 06:10:54 10° NE visible
31 Oct 6.9 05:29:26 10° ESE 05:31:16 12° E 05:33:07 10° ENE visible
01 Nov 4.0 06:31:27 10° S 06:36:38 66° ESE 06:41:50 10° NNE visible
